Terminal Aerodrome Forecast
Issued by NWS

Home | Current Version | Previous Version | Text Only | Print | Product List | Glossary Off
Versions: 1 2 3 4 5 6 7 8 9 10 11 12 13 14 15

000
FTUS42 KMHX 301136
TAFOAJ
TAF
KOAJ 301136Z 3012/3112 21005KT P6SM BKN100
     FM301800 25013G20KT 3SM SHRA BKN010 OVC030
     FM302100 26010G18KT P6SM VCSH SCT010 BKN030
     FM310000 27004KT P6SM SKC
      AMD LTD TO CLD VIS AND WIND=

USA.gov is the U.S. government's official web portal to all federal, state and local government web resources and services.